Regional Weather Roundup
Issued by NWS

Home | Current Version | Previous Version | Graphics & Text | Print | Product List | Glossary On
Versions: 1 2 3 4 5 6 7 8 9 10 11 12 13 14 15 16 17 18 19 20 21 22 23 24 25 26 27 28 29 30 31 32 33 34 35 36 37 38 39 40 41 42 43 44 45 46 47 48 49 50
000
ASUS43 KFSD 272310
RWRSD

WEATHER ROUNDUP FOR SOUTH DAKOTA
NATIONAL WEATHER SERVICE SIOUX FALLS SD
500 PM CST SAT DEC 27 2014

NOTE: "FAIR" INDICATES FEW OR NO CLOUDS BELOW 12,000 FEET WITH NO
SIGNIFICANT WEATHER AND/OR OBSTRUCTIONS TO VISIBILITY.


SDZ001>005-009-010-012>017-280000-
NORTHWEST AND NORTH CENTRAL SOUTH DAKOTA

CITY           SKY/WX    TMP DP  RH WIND       PRES   REMARKS
BUFFALO          N/A     28  16  60 W15       29.94R WCI  16
FAITH            N/A     26  17  68 SW12      30.01R WCI  16
MOBRIDGE       CLOUDY    25  18  74 SW5       30.00S WCI  19
$$

SDZ012>016-024>037-041>051-057-063-072>074-280000-
SOUTHWEST AND SOUTH CENTRAL SOUTH DAKOTA

CITY           SKY/WX    TMP DP  RH WIND       PRES   REMARKS
RAPID CTY ARPT MOCLDY    20  13  74 CALM      30.02S
PIERRE         CLEAR     23  17  78 SW7       30.06F WCI  15
CUSTER         MOCLDY    20   8  60 W3        29.92S
ELLSWORTH AFB  MOCLDY    24  16  70 SW2       30.01S
PHILIP         PTCLDY    24  16  71 W6        30.06F WCI  17
PINE RIDGE     CLEAR     23  11  60 SW3       30.06S
SPEARFISH      FAIR      25  10  54 W12       30.01R WCI  14
WINNER         FAIR      22  13  68 SW6       30.11S WCI  14
$$

SDZ004>011-016>023-039-040-280000-
NORTHEAST SOUTH DAKOTA

CITY           SKY/WX    TMP DP  RH WIND       PRES   REMARKS
ABERDEEN       CLEAR     22  16  78 SW7       30.07S WCI  13
WATERTOWN      CLEAR     13   9  84 SW7       30.06R WCI   3
SISSETON         N/A     22  15  75 W10       30.05S WCI  11
$$

SDZ017-020-022-023-036>040-048>070-280000-
SOUTHEAST SOUTH DAKOTA

CITY           SKY/WX    TMP DP  RH WIND       PRES   REMARKS
SIOUX FALLS    CLEAR     14   8  77 SW6       30.15R WCI   5
HURON          CLEAR     17  11  77 SW8       30.12R WCI   7
CHAMBERLAIN    CLEAR     17  13  84 S6        30.11S WCI   9
MITCHELL       CLEAR     19  12  74 SW9       30.15S WCI   8
YANKTON        CLEAR     21  14  73 S5        30.20S WCI  15
$$

ABBREVIATIONS USED IN REMARKS
   TC - TEMPERATURE IN CELSIUS
  WCI - WIND CHILL INDEX
   HX - HEAT INDEX
  VSB - VISIBILITY



USA.gov is the U.S. government's official web portal to all federal, state and local government web resources and services.